ONEWEB-0571 (55150 NORAD) Tracking and Keplerian Element Data

This shows tracking and keplerian element data for the satellite.

Feedback or suggestion? Click here.




ElementValue
Catalog55150
NameONEWEB-0571
Epoch Orbit1120
Epoch Day84.92092402
Epoch Year2023
RAAN253.6628
Inclination86.6256
Eccentricity0.0013548
Argument of Perigee336.8395
Mean Anonmoly23.2207
Mean Motion14.6574998
Decay Rate1.762E-05
L11 55150U 23004L 23084.92092402 .00001762 00000+0 31899-3 0 9998
L22 55150 86.6256 253.6628 0013548 336.8395 23.2207 14.65749980 11204



Live tracking and technical data element details for ONEWEB-0571 (NORAD 55150). ONEWEB-0571 can be tracked NOW for your location showing map with azimuth and elevation plus other details from your city location.







IsCatalogInMostPopularTable: catalog: 55150, numindb: 9
Update: records affected: 1



GetName: 55150 ONEWEB-0571

Hit Count: updated at: Mon, 27 Mar 2023 07:35:48 GMT